When you browse on this site, cookies collect data to enhance your experience and personalize the content and advertising you see.
Visit our Privacy Policy to learn more. By continuing to use the site, you agree to this use of cookies and data.
  • In Hungary
  • List of Countries
  • For 7 days
  • Water Temperature
  • Satellite Maps
  • Weather Map
  • News
  • Weather Widgets
  • user-avatar
    Login

    Hourly Weather Perovka

    Today, 18 November, Sunday

    Time Temperature Precipitation Wind Pressure Humidity
    00:00 -5°C° 0 mm 3 mps 754 mmHg 34%
    01:00 -5°C° 0 mm 3 mps 754 mmHg 35%
    02:00 -5°C° 0 mm 3 mps 753 mmHg 35%
    03:00 -5°C° 0 mm 3 mps 753 mmHg 35%
    04:00 -5°C° 0 mm 3 mps 752 mmHg 36%
    05:00 -5°C° 0 mm 3 mps 752 mmHg 35%
    06:00 -5°C° 0 mm 3 mps 752 mmHg 34%
    07:00 -6°C° 0 mm 3 mps 752 mmHg 33%
    08:00 -5°C° 0 mm 3 mps 752 mmHg 31%
    09:00 -4°C° 0 mm 3 mps 752 mmHg 28%
    10:00 -3°C° 0 mm 4 mps 752 mmHg 26%
    11:00 -3°C° 0 mm 4 mps 752 mmHg 26%
    12:00 -2°C° 0 mm 4 mps 752 mmHg 25%
    13:00 0°C° 0 mm 3 mps 752 mmHg 25%
    14:00 -1°C° 0 mm 3 mps 752 mmHg 27%
    15:00 -1°C° 0 mm 3 mps 752 mmHg 29%
    16:00 -1°C° 0 mm 3 mps 752 mmHg 31%
    17:00 -2°C° 0 mm 3 mps 753 mmHg 32%
    18:00 -2°C° 0 mm 3 mps 753 mmHg 33%
    19:00 -4°C° 0 mm 3 mps 753 mmHg 34%
    20:00 -4°C° 0 mm 3 mps 753 mmHg 34%
    21:00 -3°C° 0 mm 2 mps 753 mmHg 34%
    22:00 -3°C° 0 mm 2 mps 753 mmHg 35%
    23:00 -3°C° 0 mm 2 mps 753 mmHg 35%

    Tomorrow, 19 November, Monday

    Time Temperature Precipitation Wind Pressure Humidity
    00:00 -4°C° 0 mm 2 mps 753 mmHg 35%
    01:00 -4°C° 0 mm 2 mps 753 mmHg 35%
    02:00 -4°C° 0 mm 2 mps 754 mmHg 35%
    03:00 -4°C° 0 mm 2 mps 754 mmHg 35%
    04:00 -4°C° 0 mm 2 mps 754 mmHg 36%
    05:00 -5°C° 0 mm 2 mps 754 mmHg 36%
    06:00 -5°C° 0 mm 2 mps 754 mmHg 36%
    07:00 -5°C° 0 mm 2 mps 754 mmHg 36%
    08:00 -4°C° 0 mm 2 mps 754 mmHg 34%
    09:00 -4°C° 0 mm 2 mps 754 mmHg 32%
    10:00 -3°C° 0 mm 2 mps 754 mmHg 30%
    11:00 -2°C° 0 mm 2 mps 754 mmHg 28%
    12:00 -1°C° 0 mm 2 mps 754 mmHg 26%
    13:00 +1°C° 0 mm 2 mps 754 mmHg 24%
    14:00 -1°C° 0 mm 2 mps 754 mmHg 27%
    15:00 -2°C° 0 mm 2 mps 754 mmHg 29%
    16:00 0°C° 0 mm 1 mps 754 mmHg 31%
    17:00 -3°C° 0 mm 2 mps 754 mmHg 31%
    18:00 -3°C° 0 mm 2 mps 754 mmHg 32%
    19:00 -4°C° 0 mm 2 mps 754 mmHg 33%
    20:00 -4°C° 0 mm 2 mps 754 mmHg 33%
    21:00 -4°C° 0 mm 2 mps 754 mmHg 33%
    22:00 -5°C° 0 mm 2 mps 754 mmHg 33%
    23:00 -3°C° 0 mm 1 mps 754 mmHg 33%

    Day after tomorrow, 20 November, Tuesday

    Time Temperature Precipitation Wind Pressure Humidity
    00:00 -3°C° 0 mm 1 mps 754 mmHg 34%
    01:00 -3°C° 0 mm 1 mps 753 mmHg 34%
    02:00 -3°C° 0 mm 1 mps 753 mmHg 34%
    03:00 -3°C° 0 mm 1 mps 753 mmHg 34%
    04:00 -6°C° 0 mm 2 mps 753 mmHg 34%
    05:00 -4°C° 0 mm 1 mps 753 mmHg 34%
    06:00 -4°C° 0 mm 1 mps 752 mmHg 35%
    07:00 -4°C° 0 mm 1 mps 752 mmHg 35%
    08:00 -5°C° 0 mm 2 mps 752 mmHg 34%
    09:00 -5°C° 0 mm 2 mps 752 mmHg 33%
    10:00 -4°C° 0 mm 2 mps 752 mmHg 32%
    11:00 -4°C° 0 mm 2 mps 752 mmHg 32%
    12:00 -3°C° 0 mm 2 mps 752 mmHg 32%
    13:00 -2°C° 0 mm 3 mps 752 mmHg 32%
    14:00 -4°C° 0 mm 3 mps 751 mmHg 36%
    15:00 -3°C° 0 mm 2 mps 751 mmHg 39%
    16:00 -3°C° 0 mm 2 mps 751 mmHg 43%
    17:00 -4°C° 0 mm 2 mps 751 mmHg 48%
    18:00 -4°C° 0 mm 2 mps 751 mmHg 53%
    19:00 -4°C° 0 mm 2 mps 751 mmHg 58%
    20:00 -4°C° 0 mm 2 mps 750 mmHg 63%
    21:00 -4°C° 0 mm 2 mps 750 mmHg 69%
    22:00 -4°C° 0 mm 2 mps 750 mmHg 75%
    23:00 -4°C° 0 mm 2 mps 750 mmHg 78%

    21 November, Wednesday

    Time Temperature Precipitation Wind Pressure Humidity
    00:00 -4°C° 0 mm 2 mps 750 mmHg 81%
    01:00 -5°C° 0 mm 2 mps 750 mmHg 84%
    02:00 -4°C° 0 mm 2 mps 749 mmHg 85%
    03:00 -4°C° 0 mm 2 mps 749 mmHg 86%
    04:00 -4°C° 0 mm 2 mps 749 mmHg 87%
    05:00 -4°C° 0 mm 2 mps 749 mmHg 88%
    06:00 -4°C° 0 mm 2 mps 749 mmHg 90%
    07:00 -4°C° 0 mm 2 mps 748 mmHg 91%
    08:00 -4°C° 0 mm 2 mps 748 mmHg 90%
    09:00 -3°C° 0 mm 2 mps 748 mmHg 89%
    10:00 -3°C° 0 mm 2 mps 748 mmHg 87%
    11:00 -2°C° 0 mm 3 mps 748 mmHg 84%
    12:00 -3°C° 0 mm 4 mps 748 mmHg 80%
    13:00 -2°C° 0 mm 4 mps 747 mmHg 76%
    14:00 -3°C° 0 mm 4 mps 747 mmHg 76%
    15:00 -3°C° 0 mm 4 mps 746 mmHg 76%
    16:00 -3°C° 0 mm 4 mps 746 mmHg 76%
    17:00 -4°C° 0.1 mm 5 mps 746 mmHg 78%
    18:00 -5°C° 0.1 mm 5 mps 746 mmHg 80%
    19:00 -5°C° 0.1 mm 5 mps 745 mmHg 82%
    20:00 -5°C° 0.1 mm 5 mps 745 mmHg 83%
    21:00 -5°C° 0.1 mm 5 mps 745 mmHg 85%
    22:00 -5°C° 0.1 mm 5 mps 745 mmHg 86%
    23:00 -5°C° 0.1 mm 5 mps 745 mmHg 87%

    22 November, Thursday

    Time Temperature Precipitation Wind Pressure Humidity
    00:00 -5°C° 0.1 mm 5 mps 744 mmHg 87%
    01:00 -5°C° 0.1 mm 5 mps 744 mmHg 88%
    02:00 -5°C° 0 mm 4 mps 744 mmHg 88%
    03:00 -5°C° 0 mm 4 mps 744 mmHg 88%
    04:00 -5°C° 0 mm 4 mps 744 mmHg 88%
    05:00 -5°C° 0 mm 4 mps 743 mmHg 88%
    06:00 -5°C° 0 mm 4 mps 743 mmHg 88%
    07:00 -5°C° 0 mm 4 mps 743 mmHg 87%
    08:00 -6°C° 0 mm 5 mps 743 mmHg 83%
    09:00 -5°C° 0 mm 5 mps 743 mmHg 79%
    10:00 -5°C° 0 mm 6 mps 743 mmHg 75%
    11:00 -5°C° 0 mm 6 mps 742 mmHg 71%
    12:00 -5°C° 0 mm 6 mps 742 mmHg 68%
    13:00 -6°C° 0 mm 7 mps 741 mmHg 65%
    14:00 -6°C° 0 mm 7 mps 741 mmHg 66%
    15:00 -6°C° 0 mm 7 mps 740 mmHg 68%
    16:00 -6°C° 0 mm 7 mps 740 mmHg 69%
    17:00 -7°C° 0 mm 7 mps 740 mmHg 70%
    18:00 -7°C° 0 mm 7 mps 739 mmHg 72%
    19:00 -7°C° 0 mm 7 mps 739 mmHg 73%
    20:00 -7°C° 0.1 mm 7 mps 738 mmHg 75%
    21:00 -7°C° 0.1 mm 8 mps 738 mmHg 77%
    22:00 -7°C° 0.1 mm 8 mps 737 mmHg 79%
    23:00 -7°C° 0.2 mm 8 mps 737 mmHg 80%

    23 November, Friday

    Time Temperature Precipitation Wind Pressure Humidity
    00:00 -7°C° 0.2 mm 8 mps 737 mmHg 82%
    01:00 -7°C° 0.2 mm 8 mps 736 mmHg 83%
    02:00 -8°C° 0.1 mm 8 mps 737 mmHg 80%
    03:00 -10°C° 0.1 mm 8 mps 737 mmHg 76%
    04:00 -11°C° 0.1 mm 8 mps 737 mmHg 73%
    05:00 -12°C° 0 mm 8 mps 738 mmHg 71%
    06:00 -12°C° 0 mm 9 mps 739 mmHg 69%
    07:00 -12°C° 0 mm 9 mps 740 mmHg 67%
    08:00 -12°C° 0 mm 9 mps 741 mmHg 67%
    09:00 -12°C° 0 mm 8 mps 742 mmHg 66%
    10:00 -13°C° 0 mm 8 mps 743 mmHg 66%
    11:00 -12°C° 0 mm 8 mps 743 mmHg 66%
    12:00 -11°C° 0 mm 8 mps 744 mmHg 66%
    13:00 -11°C° 0 mm 8 mps 744 mmHg 66%
    14:00 -11°C° 0.1 mm 8 mps 745 mmHg 66%
    15:00 -11°C° 0.1 mm 7 mps 746 mmHg 66%
    16:00 -11°C° 0.1 mm 7 mps 746 mmHg 66%
    17:00 -11°C° 0 mm 7 mps 747 mmHg 69%
    18:00 -11°C° 0 mm 6 mps 748 mmHg 72%
    19:00 -11°C° 0 mm 5 mps 748 mmHg 74%
    20:00 -11°C° 0 mm 5 mps 749 mmHg 77%
    21:00 -12°C° 0 mm 5 mps 749 mmHg 79%
    22:00 -12°C° 0 mm 5 mps 750 mmHg 82%
    23:00 -12°C° 0 mm 5 mps 750 mmHg 83%
    Show more